NOZ391 ENSB-ENGM

Flight info

Callsign NOZ391
Flight time N/A
Altitude 37000
Route AMPIS DCT LIPSA DCT SOMUB DCT ABUNO DCT INREX
Aircraft B738/M-SDE2E3FGHIRWXY/LB1

Departure

Time 2026-04-29 13:43
Airport Svalbard Airport, Longyear (ENSB)

Arrival

Time N/A
Airport Oslo-Gardermoen International Airport (ENGM)
Time Latitude Longitude Altitude Speed Heading
2026-04-29 13:20 78.24631 15.49267 94 ft 0 kts 78°
2026-04-29 13:39 78.24630 15.49315 94 ft 3 kts 106°
2026-04-29 13:39 78.24614 15.49286 97 ft 4 kts 239°
2026-04-29 13:39 78.24615 15.49031 94 ft 12 kts 280°
2026-04-29 13:40 78.24604 15.48677 97 ft 12 kts 236°
2026-04-29 13:40 78.24584 15.48271 97 ft 12 kts 261°
2026-04-29 13:40 78.24540 15.47938 97 ft 11 kts 264°
2026-04-29 13:40 78.24566 15.47363 98 ft 25 kts 285°
2026-04-29 13:41 78.24622 15.46374 94 ft 33 kts 285°
2026-04-29 13:41 78.24689 15.45170 89 ft 29 kts 285°
2026-04-29 13:41 78.24720 15.44601 87 ft 33 kts 285°
2026-04-29 13:41 78.24789 15.43374 82 ft 41 kts 285°
2026-04-29 13:42 78.24867 15.41998 73 ft 25 kts 285°
2026-04-29 13:42 78.24898 15.41267 71 ft 13 kts 272°
2026-04-29 13:42 78.24917 15.41264 65 ft 6 kts 111°
2026-04-29 13:42 78.24847 15.42429 75 ft 81 kts 105°
2026-04-29 13:43 78.24613 15.46523 104 ft 164 kts 106°
2026-04-29 13:43 78.24250 15.52646 527 ft 209 kts 107°
2026-04-29 13:43 78.23820 15.59866 1221 ft 236 kts 105°
2026-04-29 13:43 78.23405 15.67782 2145 ft 240 kts 107°
2026-04-29 13:44 78.22599 15.74859 2999 ft 238 kts 128°
2026-04-29 13:44 78.21556 15.81390 3409 ft 253 kts 128°
2026-04-29 13:44 78.20451 15.88510 3816 ft 268 kts 127°
2026-04-29 13:44 78.19840 15.92478 4263 ft 0 kts 127°
2026-04-29 13:45 78.18870 15.98765 5035 ft 269 kts 127°
2026-04-29 13:45 78.17752 16.06140 5848 ft 272 kts 125°
2026-04-29 13:45 78.16714 16.13883 6649 ft 275 kts 122°
2026-04-29 13:45 78.15705 16.21813 7402 ft 278 kts 122°
2026-04-29 13:46 78.14682 16.29882 8166 ft 282 kts 122°
2026-04-29 13:46 78.13638 16.38076 8875 ft 287 kts 122°
2026-04-29 13:46 78.12577 16.46340 9667 ft 289 kts 122°
2026-04-29 13:46 78.11502 16.54650 10327 ft 296 kts 122°
2026-04-29 13:47 78.10356 16.63447 10531 ft 320 kts 122°
2026-04-29 13:47 78.09130 16.72804 10857 ft 336 kts 122°
2026-04-29 13:47 78.07858 16.82468 11457 ft 343 kts 123°
2026-04-29 13:47 78.06567 16.92213 12188 ft 345 kts 123°
2026-04-29 13:48 78.05267 17.01989 12964 ft 347 kts 123°
2026-04-29 13:48 78.03950 17.11839 13643 ft 352 kts 123°
2026-04-29 13:48 78.02612 17.21803 14365 ft 355 kts 123°
2026-04-29 13:48 78.01266 17.31802 15156 ft 357 kts 123°
2026-04-29 13:49 77.99900 17.41883 15806 ft 363 kts 123°
2026-04-29 13:49 77.98511 17.52056 16471 ft 367 kts 123°
2026-04-29 13:49 77.96871 17.61394 17189 ft 368 kts 142°
2026-04-29 13:49 77.94609 17.67058 17849 ft 370 kts 164°
2026-04-29 13:50 77.92055 17.68671 18467 ft 374 kts 184°
2026-04-29 13:50 77.89466 17.66982 19071 ft 377 kts 190°
2026-04-29 13:50 77.86862 17.64790 19642 ft 382 kts 191°
2026-04-29 13:50 77.84232 17.62469 20199 ft 387 kts 191°
2026-04-29 13:51 77.81576 17.60123 20786 ft 390 kts 191°
2026-04-29 13:51 77.78896 17.57795 21371 ft 393 kts 191°
2026-04-29 13:51 77.76200 17.55501 21931 ft 395 kts 190°
2026-04-29 13:51 77.73478 17.53224 22445 ft 399 kts 190°
2026-04-29 13:52 77.70723 17.50954 22899 ft 404 kts 190°
2026-04-29 13:52 77.67946 17.48690 23417 ft 406 kts 190°
2026-04-29 13:52 77.65188 17.46460 23937 ft 408 kts 190°
2026-04-29 13:52 77.62381 17.44204 24460 ft 410 kts 190°
2026-04-29 13:53 77.59522 17.41920 24932 ft 413 kts 190°
2026-04-29 13:53 77.56717 17.39689 25342 ft 417 kts 190°
2026-04-29 13:53 77.53848 17.37419 25748 ft 420 kts 190°
2026-04-29 13:53 77.50955 17.35139 26146 ft 423 kts 190°
2026-04-29 13:54 77.48041 17.32853 26560 ft 426 kts 190°
2026-04-29 13:54 77.45116 17.30570 26955 ft 428 kts 190°
2026-04-29 13:54 77.42168 17.28278 27359 ft 430 kts 190°
2026-04-29 13:54 77.39209 17.25988 27740 ft 433 kts 189°
2026-04-29 13:55 77.36233 17.23697 28086 ft 435 kts 189°
2026-04-29 13:55 77.33236 17.21400 28433 ft 438 kts 189°
2026-04-29 13:55 77.30217 17.19097 28735 ft 441 kts 189°
2026-04-29 13:55 77.27183 17.16793 29091 ft 443 kts 189°
2026-04-29 13:56 77.24142 17.14496 29452 ft 444 kts 189°
2026-04-29 13:56 77.21088 17.12199 29759 ft 446 kts 189°
2026-04-29 13:56 77.18009 17.09895 30019 ft 450 kts 189°
2026-04-29 13:56 77.14913 17.07589 30295 ft 452 kts 189°
2026-04-29 13:57 77.11805 17.05285 30569 ft 454 kts 189°
2026-04-29 13:57 77.08681 17.02981 30875 ft 455 kts 189°
2026-04-29 13:57 77.05556 17.00687 31205 ft 455 kts 189°
2026-04-29 13:57 77.03484 16.99173 31471 ft 454 kts 189°
2026-04-29 13:58 76.99323 16.96145 31970 ft 453 kts 189°
2026-04-29 13:58 76.96214 16.93895 32266 ft 453 kts 189°
2026-04-29 13:58 76.93097 16.91650 32551 ft 454 kts 189°
2026-04-29 13:58 76.89980 16.89416 32887 ft 453 kts 189°
2026-04-29 13:59 76.86878 16.87203 33274 ft 451 kts 189°
2026-04-29 13:59 76.83789 16.85010 33647 ft 449 kts 189°
2026-04-29 13:59 76.80713 16.82836 33970 ft 448 kts 189°
2026-04-29 13:59 76.77637 16.80672 34246 ft 448 kts 189°
2026-04-29 14:00 76.74554 16.78513 34494 ft 448 kts 189°
2026-04-29 14:00 76.71474 16.76366 34744 ft 449 kts 189°
2026-04-29 14:00 76.68434 16.74256 35019 ft 448 kts 189°
2026-04-29 14:00 76.65350 16.72126 35264 ft 448 kts 189°
2026-04-29 14:01 76.62270 16.70008 35515 ft 448 kts 189°
2026-04-29 14:01 76.59194 16.67903 35768 ft 448 kts 189°
2026-04-29 14:01 76.56122 16.65810 36101 ft 445 kts 189°
2026-04-29 14:01 76.53074 16.63744 36451 ft 442 kts 189°
2026-04-29 14:02 76.50032 16.61690 36644 ft 443 kts 189°
2026-04-29 14:02 76.46982 16.59640 36783 ft 445 kts 189°
2026-04-29 14:02 76.43922 16.57592 36969 ft 445 kts 189°
2026-04-29 14:02 76.40845 16.55542 36988 ft 449 kts 189°
2026-04-29 14:03 76.34660 16.51450 36996 ft 449 kts 189°
2026-04-29 14:03 76.28530 16.47431 36992 ft 442 kts 189°
2026-04-29 14:04 76.22458 16.43485 37003 ft 441 kts 189°
2026-04-29 14:04 76.16398 16.39580 37001 ft 440 kts 189°
2026-04-29 14:05 76.10348 16.35716 37003 ft 440 kts 189°
2026-04-29 14:05 76.04291 16.31880 37003 ft 441 kts 189°
2026-04-29 14:06 75.98221 16.28069 37003 ft 442 kts 189°
2026-04-29 14:06 75.92138 16.24283 37003 ft 443 kts 189°
2026-04-29 14:07 75.86027 16.20512 37002 ft 444 kts 189°
2026-04-29 14:07 75.79901 16.16764 37002 ft 446 kts 188°
2026-04-29 14:08 75.73764 16.13041 37002 ft 446 kts 188°
2026-04-29 14:08 75.67615 16.09343 37001 ft 447 kts 188°
2026-04-29 14:09 75.61497 16.05694 37001 ft 447 kts 188°
2026-04-29 14:09 75.55342 16.02054 37000 ft 447 kts 188°
2026-04-29 14:10 75.49187 15.98444 37000 ft 447 kts 188°
2026-04-29 14:10 75.43045 15.94872 37000 ft 446 kts 188°
2026-04-29 14:11 75.36907 15.91333 37000 ft 445 kts 188°
2026-04-29 14:11 75.30785 15.87831 37001 ft 444 kts 188°
2026-04-29 14:12 75.24669 15.84362 37001 ft 444 kts 188°
2026-04-29 14:12 75.18558 15.80924 37001 ft 443 kts 188°
2026-04-29 14:13 75.12459 15.77520 37001 ft 443 kts 188°
2026-04-29 14:13 75.07392 15.74713 37002 ft 443 kts 188°
2026-04-29 14:14 75.01292 15.71358 37002 ft 443 kts 188°
2026-04-29 14:14 74.95191 15.68031 37002 ft 443 kts 188°
2026-04-29 14:15 74.89087 15.64727 37002 ft 443 kts 188°
2026-04-29 14:15 74.82976 15.61447 37002 ft 444 kts 188°
2026-04-29 14:16 74.76859 15.58189 37002 ft 444 kts 188°
2026-04-29 14:16 74.70739 15.54955 37002 ft 444 kts 188°
2026-04-29 14:17 74.64608 15.51741 37001 ft 445 kts 188°
2026-04-29 14:17 74.58472 15.48550 37001 ft 445 kts 188°
2026-04-29 14:18 74.52338 15.45384 37001 ft 445 kts 188°
2026-04-29 14:18 74.46197 15.42240 37001 ft 445 kts 188°
2026-04-29 14:19 74.40059 15.39122 37001 ft 445 kts 188°
2026-04-29 14:19 74.33920 15.36027 37001 ft 445 kts 188°
2026-04-29 14:20 74.27786 15.32958 37001 ft 445 kts 188°
2026-04-29 14:20 74.21642 15.29908 37001 ft 445 kts 188°
2026-04-29 14:21 74.15511 15.26887 37001 ft 445 kts 188°
2026-04-29 14:21 74.09376 15.23888 37001 ft 444 kts 188°
2026-04-29 14:22 74.03249 15.20914 37001 ft 444 kts 188°
2026-04-29 14:22 73.97124 15.17965 37001 ft 444 kts 188°
2026-04-29 14:23 73.91001 15.15038 37001 ft 444 kts 188°
2026-04-29 14:23 73.84876 15.12132 37001 ft 444 kts 188°
2026-04-29 14:24 73.78750 15.09247 37001 ft 444 kts 187°
2026-04-29 14:24 73.72627 15.06385 37001 ft 444 kts 187°
2026-04-29 14:25 73.66503 15.03543 37001 ft 444 kts 187°
2026-04-29 14:25 73.60381 15.00724 37002 ft 444 kts 187°
2026-04-29 14:26 73.54253 14.97922 37002 ft 444 kts 187°
2026-04-29 14:26 73.48128 14.95142 37001 ft 444 kts 187°
2026-04-29 14:27 73.42035 14.92396 37001 ft 444 kts 187°
2026-04-29 14:28 73.32842 14.88290 37001 ft 444 kts 187°
2026-04-29 14:28 73.26707 14.85575 37001 ft 444 kts 187°
2026-04-29 14:29 73.20576 14.82881 37001 ft 444 kts 187°
2026-04-29 14:29 73.14436 14.80203 37001 ft 444 kts 187°
2026-04-29 14:30 73.08302 14.77546 37001 ft 444 kts 187°
2026-04-29 14:30 73.02165 14.74906 37001 ft 444 kts 187°
2026-04-29 14:31 72.96032 14.72287 37001 ft 444 kts 187°
2026-04-29 14:31 72.89896 14.69684 37001 ft 444 kts 187°
2026-04-29 14:32 72.83761 14.67101 37001 ft 444 kts 187°
2026-04-29 14:32 72.77625 14.64535 37001 ft 444 kts 187°
2026-04-29 14:33 72.71490 14.61987 37001 ft 444 kts 187°
2026-04-29 14:33 72.65354 14.59456 37001 ft 444 kts 187°
2026-04-29 14:34 72.59219 14.56943 37001 ft 444 kts 187°
2026-04-29 14:34 72.53125 14.54465 37001 ft 444 kts 187°
2026-04-29 14:35 72.46997 14.51989 37001 ft 444 kts 187°
2026-04-29 14:35 72.40860 14.49526 37001 ft 444 kts 187°
2026-04-29 14:36 72.34729 14.47083 37001 ft 444 kts 187°
2026-04-29 14:36 72.28594 14.44654 37001 ft 444 kts 187°
2026-04-29 14:37 72.22462 14.42243 37001 ft 444 kts 187°
2026-04-29 14:37 72.16326 14.39847 37001 ft 444 kts 187°
2026-04-29 14:38 72.10193 14.37468 37001 ft 444 kts 187°
2026-04-29 14:38 72.04056 14.35102 37002 ft 444 kts 187°
2026-04-29 14:39 71.97923 14.32755 37001 ft 444 kts 187°
2026-04-29 14:39 71.91784 14.30420 37001 ft 444 kts 187°
2026-04-29 14:40 71.85651 14.28103 37001 ft 444 kts 187°
2026-04-29 14:40 71.79511 14.25799 37001 ft 444 kts 187°
2026-04-29 14:41 71.73376 14.23512 37001 ft 444 kts 187°
2026-04-29 14:41 71.67235 14.21237 37001 ft 444 kts 187°
2026-04-29 14:42 71.61101 14.18980 37001 ft 444 kts 187°
2026-04-29 14:42 71.54964 14.16736 37001 ft 444 kts 187°
2026-04-29 14:43 71.48823 14.14505 37001 ft 444 kts 187°
2026-04-29 14:43 71.42687 14.12290 37001 ft 444 kts 187°
2026-04-29 14:44 71.36551 14.10090 37001 ft 444 kts 187°
2026-04-29 14:44 71.30413 14.07903 37001 ft 444 kts 187°
2026-04-29 14:45 71.24272 14.05728 37001 ft 444 kts 187°
2026-04-29 14:45 71.18134 14.03568 37001 ft 444 kts 187°
2026-04-29 14:46 71.11999 14.01424 37002 ft 444 kts 187°
2026-04-29 14:46 71.05860 13.99291 37001 ft 444 kts 187°
2026-04-29 14:47 70.99724 13.97172 37001 ft 444 kts 186°
2026-04-29 14:47 70.93584 13.95065 37001 ft 444 kts 186°
2026-04-29 14:48 70.87447 13.92973 37001 ft 444 kts 186°
2026-04-29 14:48 70.81348 13.90906 37001 ft 444 kts 186°
2026-04-29 14:49 70.75212 13.88840 37001 ft 444 kts 186°
2026-04-29 14:49 70.69071 13.86785 37001 ft 444 kts 186°
2026-04-29 14:50 70.62935 13.84744 37001 ft 444 kts 186°
2026-04-29 14:50 70.56795 13.82714 37001 ft 444 kts 186°
2026-04-29 14:51 70.50658 13.80697 37001 ft 444 kts 186°
2026-04-29 14:51 70.44516 13.78691 37001 ft 444 kts 186°
2026-04-29 14:52 70.38379 13.76699 37001 ft 444 kts 186°
2026-04-29 14:52 70.32238 13.74717 37001 ft 444 kts 186°
2026-04-29 14:53 70.26102 13.72749 37001 ft 444 kts 186°
2026-04-29 14:53 70.19963 13.70792 37001 ft 444 kts 186°
2026-04-29 14:54 70.13820 13.68845 37001 ft 444 kts 186°
2026-04-29 14:54 70.07679 13.66911 37001 ft 444 kts 186°
2026-04-29 14:55 70.01542 13.64989 37001 ft 444 kts 186°
2026-04-29 14:55 69.95401 13.63077 37001 ft 444 kts 186°
2026-04-29 14:56 69.89262 13.61177 37001 ft 444 kts 186°
2026-04-29 14:56 69.83126 13.59289 37001 ft 444 kts 186°
2026-04-29 14:57 69.76985 13.57411 37001 ft 444 kts 186°
2026-04-29 14:57 69.70843 13.55543 37001 ft 444 kts 186°
2026-04-29 14:58 69.64704 13.53687 37001 ft 444 kts 186°
2026-04-29 14:58 69.58564 13.51842 37001 ft 444 kts 186°
2026-04-29 14:59 69.52425 13.50007 37001 ft 444 kts 186°
2026-04-29 14:59 69.46323 13.48194 37001 ft 444 kts 186°
2026-04-29 15:00 69.40182 13.46379 37001 ft 444 kts 186°
2026-04-29 15:00 69.34046 13.44575 37001 ft 444 kts 186°
2026-04-29 15:01 69.28901 13.43020 37001 ft 444 kts 187°
2026-04-29 15:01 69.22776 13.40904 37001 ft 443 kts 187°
2026-04-29 15:02 69.16694 13.38750 37001 ft 443 kts 187°
2026-04-29 15:02 69.10572 13.36619 37001 ft 443 kts 187°
2026-04-29 15:03 69.04445 13.34520 37001 ft 443 kts 187°
2026-04-29 15:03 68.98319 13.32442 37001 ft 443 kts 187°
2026-04-29 15:04 68.92188 13.30375 37001 ft 443 kts 187°
2026-04-29 15:04 68.86065 13.28321 37001 ft 443 kts 187°
2026-04-29 15:05 68.79934 13.26276 37001 ft 443 kts 187°
2026-04-29 15:05 68.73809 13.24244 37001 ft 443 kts 187°
2026-04-29 15:06 68.67681 13.22222 37001 ft 443 kts 187°
2026-04-29 15:06 68.61552 13.20211 37001 ft 443 kts 187°
2026-04-29 15:07 68.55424 13.18212 37001 ft 443 kts 187°
2026-04-29 15:07 68.49296 13.16223 37001 ft 443 kts 187°
2026-04-29 15:08 68.43168 13.14245 37001 ft 443 kts 187°
2026-04-29 15:08 68.37041 13.12278 37001 ft 443 kts 187°
2026-04-29 15:09 68.30913 13.10322 37001 ft 443 kts 187°
2026-04-29 15:09 68.24786 13.08376 37001 ft 443 kts 187°
2026-04-29 15:10 68.18659 13.06441 37001 ft 443 kts 187°
2026-04-29 15:10 68.12571 13.04529 37001 ft 443 kts 187°
2026-04-29 15:11 68.06446 13.02615 37001 ft 443 kts 187°
2026-04-29 15:11 68.00311 13.00709 37001 ft 444 kts 187°
2026-04-29 15:12 67.94168 12.98809 37004 ft 444 kts 187°
2026-04-29 15:12 67.88023 12.96919 37001 ft 445 kts 187°
2026-04-29 15:13 67.81875 12.95039 36998 ft 445 kts 187°
2026-04-29 15:13 67.75728 12.93169 37001 ft 445 kts 187°
2026-04-29 15:14 67.69584 12.91309 37000 ft 444 kts 187°
2026-04-29 15:14 67.63445 12.89461 37001 ft 444 kts 187°
2026-04-29 15:15 67.57309 12.87623 37001 ft 443 kts 187°
2026-04-29 15:15 67.51182 12.85798 37001 ft 443 kts 187°
2026-04-29 15:16 67.45058 12.83983 37001 ft 443 kts 187°
2026-04-29 15:16 67.38934 12.82177 37001 ft 443 kts 187°
2026-04-29 15:17 67.32819 12.80383 37001 ft 442 kts 187°
2026-04-29 15:17 67.26697 12.78597 37002 ft 442 kts 187°
2026-04-29 15:18 67.20625 12.76834 37002 ft 442 kts 186°
2026-04-29 15:18 67.14505 12.75066 37002 ft 442 kts 186°
2026-04-29 15:19 67.08383 12.73307 37002 ft 443 kts 186°
2026-04-29 15:19 67.02264 12.71557 37002 ft 443 kts 186°
2026-04-29 15:20 66.96136 12.69813 37002 ft 443 kts 186°
2026-04-29 15:20 66.90010 12.68080 37001 ft 443 kts 186°
2026-04-29 15:21 66.83881 12.66353 37001 ft 443 kts 186°
2026-04-29 15:21 66.77747 12.64634 37001 ft 443 kts 186°
2026-04-29 15:22 66.71617 12.62925 37001 ft 443 kts 186°
2026-04-29 15:22 66.65483 12.61224 37001 ft 443 kts 186°
2026-04-29 15:23 66.59343 12.59529 37001 ft 444 kts 186°
2026-04-29 15:23 66.53210 12.57844 37001 ft 443 kts 186°
2026-04-29 15:24 66.47077 12.56168 37001 ft 443 kts 186°
2026-04-29 15:24 66.40941 12.54499 37001 ft 443 kts 186°
2026-04-29 15:25 66.34806 12.52839 37001 ft 443 kts 186°
2026-04-29 15:25 66.28675 12.51188 37001 ft 443 kts 186°
2026-04-29 15:26 66.22545 12.49545 37001 ft 443 kts 186°
2026-04-29 15:26 66.16417 12.47911 37001 ft 443 kts 186°
2026-04-29 15:27 66.10288 12.46284 37001 ft 443 kts 186°
2026-04-29 15:27 66.04198 12.44676 36992 ft 443 kts 186°
2026-04-29 15:28 65.99015 12.43314 37002 ft 443 kts 186°
2026-04-29 15:28 65.93503 12.41870 37001 ft 443 kts 186°
2026-04-29 15:29 65.87369 12.40271 37001 ft 443 kts 186°
2026-04-29 15:30 65.75105 12.37098 37001 ft 443 kts 186°
2026-04-29 15:30 65.68973 12.35523 37001 ft 443 kts 186°
2026-04-29 15:31 65.63340 12.34082 37003 ft 443 kts 186°
2026-04-29 15:31 65.58096 12.32747 37001 ft 443 kts 186°
2026-04-29 15:32 65.51965 12.31192 36997 ft 443 kts 186°
2026-04-29 15:32 65.45833 12.29645 37004 ft 443 kts 186°
2026-04-29 15:33 65.39705 12.28106 37002 ft 443 kts 186°
2026-04-29 15:33 65.33571 12.26572 37001 ft 443 kts 186°
2026-04-29 15:34 65.27431 12.25045 37001 ft 443 kts 186°
2026-04-29 15:34 65.21295 12.23525 37001 ft 443 kts 186°
2026-04-29 15:35 65.15161 12.22013 37000 ft 443 kts 186°
2026-04-29 15:35 65.09026 12.20508 37002 ft 443 kts 186°
2026-04-29 15:36 65.02887 12.19009 37006 ft 443 kts 186°
2026-04-29 15:36 64.96750 12.17517 37000 ft 444 kts 186°
2026-04-29 15:37 64.90650 12.16041 36999 ft 444 kts 186°
2026-04-29 15:37 64.84510 12.14562 37004 ft 444 kts 186°
2026-04-29 15:38 64.78369 12.13089 37002 ft 444 kts 186°
2026-04-29 15:38 64.72216 12.11621 37003 ft 444 kts 186°
2026-04-29 15:39 64.66061 12.10159 37005 ft 445 kts 186°
2026-04-29 15:39 64.59899 12.08701 37005 ft 445 kts 186°
2026-04-29 15:40 64.53741 12.07251 37002 ft 445 kts 186°
2026-04-29 15:40 64.47571 12.05805 36999 ft 445 kts 186°
2026-04-29 15:41 64.41412 12.04368 36999 ft 445 kts 186°
2026-04-29 15:41 64.35249 12.02937 36995 ft 445 kts 186°
2026-04-29 15:42 64.29095 12.01514 37003 ft 445 kts 186°
2026-04-29 15:42 64.22936 12.00097 37002 ft 445 kts 186°
2026-04-29 15:43 64.16780 11.98686 37007 ft 444 kts 186°
2026-04-29 15:43 64.10672 11.97293 36995 ft 444 kts 186°
2026-04-29 15:44 64.04524 11.95896 37001 ft 444 kts 186°
2026-04-29 15:44 63.98375 11.94506 37005 ft 444 kts 186°
2026-04-29 15:45 63.92230 11.93122 36996 ft 444 kts 186°
2026-04-29 15:45 63.86085 11.91745 37006 ft 444 kts 186°
2026-04-29 15:46 63.79936 11.90373 37002 ft 444 kts 186°
2026-04-29 15:46 63.73791 11.89007 36999 ft 444 kts 186°
2026-04-29 15:47 63.67643 11.87647 37004 ft 444 kts 186°
2026-04-29 15:47 63.61489 11.86292 37000 ft 444 kts 186°
2026-04-29 15:48 63.55333 11.84941 37006 ft 445 kts 186°
2026-04-29 15:48 63.49175 11.83597 36998 ft 445 kts 186°
2026-04-29 15:49 63.43003 11.82254 37004 ft 446 kts 186°
2026-04-29 15:49 63.36829 11.80917 37006 ft 446 kts 186°
2026-04-29 15:50 63.31680 11.80518 37008 ft 446 kts 178°
2026-04-29 15:50 63.25487 11.81244 36996 ft 446 kts 176°
2026-04-29 15:51 63.18282 11.82176 37001 ft 446 kts 177°
2026-04-29 15:51 63.13078 11.82766 37002 ft 447 kts 177°
2026-04-29 15:52 63.06868 11.83417 37002 ft 447 kts 178°
2026-04-29 15:52 63.00642 11.84051 37008 ft 448 kts 178°
2026-04-29 15:53 62.94410 11.84683 36999 ft 448 kts 178°
2026-04-29 15:53 62.88223 11.85311 37000 ft 448 kts 178°
2026-04-29 15:54 62.81992 11.85942 37002 ft 448 kts 178°
2026-04-29 15:54 62.75754 11.86571 37003 ft 448 kts 178°
2026-04-29 15:55 62.69522 11.87196 37001 ft 448 kts 178°
2026-04-29 15:55 62.63294 11.87819 37001 ft 448 kts 178°
2026-04-29 15:56 62.57075 11.88438 37001 ft 447 kts 178°
2026-04-29 15:56 62.50853 11.89054 37000 ft 447 kts 178°
2026-04-29 15:57 62.44640 11.89667 37001 ft 447 kts 178°
2026-04-29 15:57 62.38436 11.90277 37002 ft 446 kts 178°
2026-04-29 15:58 62.33744 11.90737 36999 ft 446 kts 178°
2026-04-29 15:58 62.27543 11.91342 37004 ft 446 kts 178°
2026-04-29 15:59 62.21351 11.91944 36973 ft 442 kts 178°
2026-04-29 15:59 62.18306 11.92239 36622 ft 436 kts 178°
2026-04-29 15:59 62.15272 11.92532 36061 ft 436 kts 178°
2026-04-29 15:59 62.12241 11.92825 35492 ft 436 kts 178°
2026-04-29 16:00 62.09220 11.93116 34993 ft 434 kts 178°
2026-04-29 16:00 62.06209 11.93405 34563 ft 431 kts 178°
2026-04-29 16:00 62.03264 11.93688 34196 ft 427 kts 178°
2026-04-29 16:00 62.00278 11.93978 33805 ft 422 kts 177°
2026-04-29 16:01 61.97400 11.94536 33379 ft 420 kts 173°
2026-04-29 16:01 61.95886 11.94940 33159 ft 418 kts 173°
2026-04-29 16:01 61.93011 11.95797 32722 ft 416 kts 172°
2026-04-29 16:01 61.90157 11.96688 32313 ft 413 kts 172°
2026-04-29 16:02 61.87320 11.97569 31908 ft 410 kts 172°
2026-04-29 16:02 61.84503 11.98424 31500 ft 408 kts 172°
2026-04-29 16:02 61.81705 11.99254 31088 ft 405 kts 172°
2026-04-29 16:02 61.78920 12.00065 30659 ft 403 kts 172°
2026-04-29 16:03 61.76140 12.00865 30228 ft 402 kts 172°
2026-04-29 16:03 61.73381 12.01654 29829 ft 399 kts 172°
2026-04-29 16:03 61.70647 12.02433 29481 ft 395 kts 172°
2026-04-29 16:03 61.67934 12.03203 29077 ft 392 kts 172°
2026-04-29 16:04 61.65244 12.03966 28661 ft 389 kts 173°
2026-04-29 16:04 61.62570 12.04723 28263 ft 386 kts 173°
2026-04-29 16:04 61.59913 12.05474 27868 ft 384 kts 173°
2026-04-29 16:04 61.57273 12.06219 27444 ft 382 kts 173°
2026-04-29 16:05 61.54651 12.06958 27074 ft 379 kts 173°
2026-04-29 16:05 61.52054 12.07689 26696 ft 376 kts 173°
2026-04-29 16:05 61.49472 12.08414 26282 ft 374 kts 173°
2026-04-29 16:05 61.46894 12.09137 25836 ft 373 kts 173°
2026-04-29 16:06 61.44334 12.09853 25452 ft 370 kts 173°
2026-04-29 16:06 61.41793 12.10564 25092 ft 367 kts 173°
2026-04-29 16:06 61.39274 12.11266 24719 ft 364 kts 173°
2026-04-29 16:06 61.36773 12.11963 24289 ft 363 kts 173°
2026-04-29 16:07 61.34271 12.12659 23868 ft 362 kts 173°
2026-04-29 16:07 61.31784 12.13350 23489 ft 359 kts 173°
2026-04-29 16:07 61.29315 12.14034 23114 ft 357 kts 173°
2026-04-29 16:07 61.26863 12.14713 22765 ft 354 kts 173°
2026-04-29 16:08 61.24463 12.15376 22407 ft 351 kts 173°
2026-04-29 16:08 61.22046 12.16043 22019 ft 350 kts 173°
2026-04-29 16:08 61.19607 12.16715 21635 ft 348 kts 173°
2026-04-29 16:08 61.17247 12.17365 21265 ft 346 kts 173°
2026-04-29 16:09 61.14874 12.18017 20935 ft 343 kts 173°
2026-04-29 16:09 61.12517 12.18663 20559 ft 341 kts 173°
2026-04-29 16:09 61.10172 12.19306 20172 ft 339 kts 173°
2026-04-29 16:09 61.07833 12.19945 19797 ft 338 kts 173°
2026-04-29 16:10 61.05510 12.20580 19450 ft 335 kts 173°
2026-04-29 16:10 61.03205 12.21199 19095 ft 333 kts 175°
2026-04-29 16:10 61.00912 12.20844 18672 ft 332 kts 197°
2026-04-29 16:10 60.98829 12.18887 18333 ft 328 kts 209°
2026-04-29 16:11 60.96855 12.16562 17996 ft 326 kts 210°
2026-04-29 16:11 60.94899 12.14209 17622 ft 325 kts 211°
2026-04-29 16:11 60.92950 12.11878 17276 ft 323 kts 210°
2026-04-29 16:11 60.91010 12.09581 16927 ft 321 kts 210°
2026-04-29 16:12 60.89075 12.07310 16567 ft 320 kts 210°
2026-04-29 16:12 60.87774 12.05789 16341 ft 318 kts 210°
2026-04-29 16:12 60.85233 12.02835 15886 ft 316 kts 210°
2026-04-29 16:12 60.83327 12.00625 15542 ft 314 kts 210°
2026-04-29 16:13 60.81429 11.98428 15189 ft 312 kts 210°
2026-04-29 16:13 60.79544 11.96239 14837 ft 311 kts 210°
2026-04-29 16:13 60.77668 11.94060 14503 ft 309 kts 210°
2026-04-29 16:13 60.75803 11.91894 14179 ft 307 kts 210°
2026-04-29 16:14 60.73948 11.89744 13832 ft 306 kts 210°
2026-04-29 16:14 60.72106 11.87610 13536 ft 303 kts 210°
2026-04-29 16:14 60.70299 11.85524 13435 ft 293 kts 210°
2026-04-29 16:14 60.68557 11.83510 13353 ft 283 kts 211°
2026-04-29 16:15 60.67005 11.81042 12907 ft 286 kts 225°
2026-04-29 16:15 60.65625 11.78091 12516 ft 288 kts 228°
2026-04-29 16:15 60.64282 11.75071 12208 ft 287 kts 228°
2026-04-29 16:15 60.62940 11.72073 11893 ft 286 kts 227°
2026-04-29 16:16 60.61595 11.69113 11598 ft 284 kts 227°
2026-04-29 16:16 60.60246 11.66185 11283 ft 283 kts 227°
2026-04-29 16:16 60.58895 11.63286 10972 ft 282 kts 226°
2026-04-29 16:16 60.57546 11.60411 10664 ft 281 kts 226°
2026-04-29 16:17 60.56199 11.57555 10379 ft 279 kts 226°
2026-04-29 16:17 60.54857 11.54721 10092 ft 277 kts 226°
2026-04-29 16:17 60.53533 11.51930 9804 ft 276 kts 226°
2026-04-29 16:17 60.52211 11.49153 9506 ft 275 kts 226°
2026-04-29 16:18 60.50885 11.46371 9197 ft 274 kts 226°
2026-04-29 16:18 60.49561 11.43598 8898 ft 273 kts 226°
2026-04-29 16:18 60.48248 11.40849 8711 ft 268 kts 226°
2026-04-29 16:18 60.46976 11.38191 8632 ft 258 kts 226°
2026-04-29 16:19 60.45742 11.35615 8446 ft 253 kts 226°
2026-04-29 16:19 60.44506 11.33037 7937 ft 263 kts 226°